EW4096 Weather Reports


Display with metric or nautical units.
time (UTC)temp
F
wind
direction
speed
MPH
gust
MPH
rain 1hr
in
rain 24hr
in
rain mn
in
humidity
%
barometer
mb
20260507140456 57 268 0.0 0.0 0.00 0.00 0.00 53 1011.7
20260507135956 56 268 0.0 0.0 0.00 0.00 0.00 49 1011.7
20260507135455 56 324 0.0 0.0 0.00 0.00 0.00 53 1011.9
20260507134956 56 292 0.0 0.0 0.00 0.00 0.00 53 1011.9
20260507134456 56 322 0.0 0.0 0.00 0.00 0.00 52 1011.9
20260507133953 56 322 0.0 0.0 0.00 0.00 0.00 55 1012.0
20260507133452 56 281 0.0 0.0 0.00 0.00 0.00 53 1012.0
20260507132951 55 284 0.0 0.0 0.00 0.00 0.00 55 1012.0
20260507132452 55 300 0.0 0.0 0.00 0.00 0.00 56 1012.1
20260507131956 54 301 0.0 0.0 0.00 0.00 0.00 54 1012.1
20260507131952 55 301 0.0 0.0 0.00 0.00 0.00 56 1012.0
20260507130952 54 300 0.0 0.0 0.00 0.00 0.00 56 1012.0
20260507130451 54 300 0.0 0.0 0.00 0.00 0.00 57 1012.0
20260507125951 54 300 0.0 0.0 0.00 0.00 0.00 58 1012.1
20260507125452 53 300 0.0 0.0 0.00 0.00 0.00 58 1012.0
20260507124951 53 307 0.0 0.0 0.00 0.00 0.00 58 1012.0
20260507124451 53 259 0.0 0.0 0.00 0.00 0.00 58 1012.0
20260507123952 53 213 0.0 0.0 0.00 0.00 0.00 59 1012.1
20260507123451 53 212 0.0 0.0 0.00 0.00 0.00 59 1012.0
20260507122952 53 199 0.0 0.0 0.00 0.00 0.00 63 1012.1
20260507122452 52 199 0.0 0.0 0.00 0.00 0.00 64 1012.0
20260507121951 52 199 0.0 0.0 0.00 0.00 0.00 64 1011.9
20260507121451 52 199 0.0 0.0 0.00 0.00 0.00 63 1011.8
20260507120952 52 199 0.0 0.0 0.00 0.00 0.00 64 1011.9
20260507120451 52 198 0.0 0.0 0.00 0.00 0.00 66 1011.9
20260507115956 51 199 0.0 0.0 0.00 0.00 0.00 68 1011.7
20260507115952 52 199 0.0 0.0 0.00 0.00 0.00 69 1011.8
20260507115451 51 199 0.0 0.0 0.00 0.00 0.00 70 1011.8
20260507114948 51 199 0.0 0.0 0.00 0.00 0.00 69 1011.8
20260507114552 51 199 0.0 0.0 0.00 0.00 0.00 71 1011.8
20260507113444 52 199 0.0 0.0 0.00 0.00 0.00 71 1011.8
20260507112939 52 199 0.0 0.0 0.00 0.00 0.00 70 1012.0
20260507112437 52 199 0.0 0.0 0.00 0.00 0.00 71 1012.0
20260507111936 52 130 0.0 0.0 0.00 0.00 0.00 69 1011.9
20260507111435 52 101 0.0 0.0 0.00 0.00 0.00 68 1011.9
20260507110935 52 101 0.0 0.0 0.00 0.00 0.00 68 1011.8
20260507110436 52 101 0.0 0.0 0.00 0.00 0.00 66 1011.7
20260507105935 52 101 0.0 0.0 0.00 0.00 0.00 65 1011.6
20260507105435 52 101 0.0 0.0 0.00 0.00 0.00 64 1011.5
20260507104936 52 84 0.0 0.0 0.00 0.00 0.00 61 1011.5
20260507104439 52 118 0.0 0.0 0.00 0.00 0.00 62 1011.2
20260507104435 52 113 0.0 0.0 0.00 0.00 0.00 62 1011.3
20260507103435 52 336 0.0 0.0 0.00 0.00 0.00 64 1011.2
20260507102940 52 335 0.0 0.0 0.00 0.00 0.00 64 1011.2
20260507102439 52 342 0.0 0.0 0.00 0.00 0.00 64 1011.2
20260507102435 52 342 0.0 0.0 0.00 0.00 0.00 64 1011.2
20260507101435 53 350 0.0 0.0 0.00 0.00 0.00 65 1011.1
20260507100935 53 324 0.0 0.0 0.00 0.00 0.00 66 1011.0
20260507100435 53 325 0.0 0.0 0.00 0.00 0.00 67 1010.9
20260507095939 53 326 0.0 0.0 0.00 0.00 0.00 67 1010.7
20260507095935 53 325 0.0 0.0 0.00 0.00 0.00 66 1010.7
20260507095038 53 325 0.0 0.0 0.00 0.00 0.00 66 1010.7
20260507094937 53 326 0.0 0.0 0.00 0.00 0.00 65 1010.7
20260507094933 53 326 0.0 0.0 0.00 0.00 0.00 65 1010.6
20260507094037 53 304 0.0 0.0 0.00 0.00 0.00 65 1010.7
20260507092933 53 294 0.0 0.0 0.00 0.00 0.00 66 1010.7
20260507092433 53 17 0.0 0.0 0.00 0.00 0.00 67 1010.7
20260507091933 53 317 0.0 0.0 0.00 0.00 0.00 71 1010.8
20260507091433 53 290 0.0 0.0 0.00 0.00 0.00 72 1010.9
20260507090933 53 340 0.0 0.0 0.00 0.00 0.00 73 1010.8
20260507090432 53 50 0.0 0.0 0.00 0.00 0.00 73 1010.8
20260507085935 53 311 0.0 0.0 0.00 0.00 0.00 77 1010.7
20260507085931 53 330 0.0 0.0 0.00 0.00 0.00 75 1010.8
20260507084931 54 319 0.0 0.0 0.00 0.00 0.00 77 1010.7
20260507084431 54 319 0.0 0.0 0.00 0.00 0.00 76 1010.6
20260507083931 54 319 0.0 0.0 0.00 0.00 0.00 76 1010.6
20260507083431 54 319 0.0 0.0 0.00 0.00 0.00 74 1010.7
20260507082935 54 319 0.0 0.0 0.00 0.00 0.00 74 1010.5
20260507082931 54 319 0.0 0.0 0.00 0.00 0.00 74 1010.7
20260507081931 54 319 0.0 0.0 0.00 0.00 0.00 74 1010.5
20260507081431 54 335 0.0 0.0 0.00 0.00 0.00 74 1010.4
20260507080929 54 334 0.0 0.0 0.00 0.00 0.00 74 1010.4
20260507080429 54 334 0.0 0.0 0.00 0.00 0.00 74 1010.2
20260507075929 54 342 0.0 0.0 0.00 0.00 0.00 74 1009.9
20260507075429 54 343 0.0 0.0 0.00 0.00 0.00 74 1009.9
20260507074929 54 306 0.0 0.0 0.00 0.00 0.00 73 1009.9
20260507074429 54 306 0.0 1.0 0.00 0.00 0.00 73 1009.9
20260507073928 54 306 0.0 1.0 0.00 0.00 0.00 73 1010.1
20260507073434 54 329 0.0 0.0 0.00 0.00 0.00 73 1009.8
20260507072931 55 333 0.0 0.0 0.00 0.00 0.00 73 1009.9
20260507072927 55 322 0.0 0.0 0.00 0.00 0.00 73 1009.7
20260507071925 55 277 0.0 0.0 0.00 0.00 0.00 73 1009.9
20260507071425 55 264 0.0 0.0 0.00 0.00 0.00 74 1009.9
20260507070923 55 62 0.0 0.0 0.00 0.00 0.00 74 1010.2
20260507070423 55 0 0.0 0.0 0.00 0.00 0.00 74 1010.2
20260507065925 55 300 0.0 0.0 0.00 0.00 0.00 74 1010.4
20260507065920 55 302 0.0 0.0 0.00 0.00 0.00 74 1010.2
20260507064925 55 15 0.0 0.0 0.00 0.00 0.00 74 1010.4
20260507064921 55 293 0.0 0.0 0.00 0.00 0.00 74 1010.4
20260507063921 55 22 0.0 0.0 0.00 0.00 0.00 74 1010.4
20260507063424 55 290 0.0 0.0 0.00 0.00 0.00 75 1010.5
20260507063420 55 323 0.0 0.0 0.00 0.00 0.00 73 1010.4
20260507063025 55 51 0.0 0.0 0.00 0.00 0.00 76 1010.4
20260507061920 56 294 0.0 0.0 0.00 0.00 0.00 76 1010.5
20260507061419 56 293 0.0 0.0 0.00 0.00 0.00 76 1010.4
20260507060919 56 293 0.0 0.0 0.00 0.00 0.00 76 1010.4
20260507060419 56 293 0.0 0.0 0.00 0.00 0.00 77 1010.5
20260507055917 56 293 0.0 0.0 0.00 0.00 0.00 77 1010.4
20260507055414 56 293 0.0 0.0 0.00 0.00 0.00 77 1010.3
20260507054912 56 293 0.0 0.0 0.00 0.00 0.00 77 1010.3
20260507054413 56 293 0.0 0.0 0.00 0.00 0.00 77 1010.3
20260507053910 56 293 0.0 0.0 0.00 0.00 0.00 77 1010.1
20260507053410 56 293 0.0 0.0 0.00 0.00 0.00 77 1010.3
20260507052909 56 293 0.0 0.0 0.00 0.00 0.00 77 1010.3
20260507052414 56 293 0.0 0.0 0.00 0.00 0.00 78 1010.2
20260507052408 56 293 0.0 0.0 0.00 0.00 0.00 77 1010.3
20260507051909 56 293 0.0 0.0 0.00 0.00 0.00 77 1010.2
20260507050906 56 293 0.0 0.0 0.00 0.00 0.00 77 1010.2
20260507050407 56 293 0.0 0.0 0.00 0.00 0.00 77 1010.1
20260507045910 56 293 0.0 0.0 0.00 0.00 0.00 77 1010.2
20260507045906 56 293 0.0 0.0 0.00 0.00 0.00 77 1010.2
20260507044906 56 341 0.0 0.0 0.00 0.00 0.00 77 1010.2
20260507044405 56 340 0.0 0.0 0.00 0.00 0.00 77 1010.1
20260507043906 56 312 0.0 0.0 0.00 0.00 0.00 76 1009.9
20260507043406 56 311 0.0 0.0 0.00 0.00 0.00 77 1009.8
20260507042905 57 300 0.0 0.0 0.00 0.00 0.00 77 1009.9
20260507042410 57 307 0.0 0.0 0.00 0.00 0.00 78 1010.1
20260507042406 57 300 0.0 0.0 0.00 0.00 0.00 78 1010.3
20260507041403 57 342 0.0 0.0 0.00 0.00 0.00 79 1010.2
20260507040904 57 58 0.0 0.0 0.00 0.00 0.00 79 1010.1
20260507040407 57 325 0.0 0.0 0.00 0.00 0.00 80 1009.8
20260507040403 57 325 0.0 0.0 0.00 0.00 0.00 80 1009.9
20260507035404 57 313 0.0 0.0 0.00 0.00 0.00 80 1010.1
20260507034907 58 292 0.0 0.0 0.00 0.00 0.00 80 1009.9
20260507034903 58 315 0.0 0.0 0.00 0.00 0.00 80 1009.8
20260507033859 58 267 0.0 0.0 0.00 0.00 0.00 80 1009.9
20260507033357 58 209 0.0 0.0 0.00 0.00 0.00 80 1009.7
20260507032858 58 309 0.0 0.0 0.00 0.00 0.00 80 1009.9
20260507032401 58 45 0.0 0.0 0.00 0.00 0.00 80 1009.7
20260507032357 58 273 0.0 0.0 0.00 0.00 0.00 80 1009.9
20260507031356 58 301 0.0 0.0 0.00 0.00 0.00 79 1009.7
20260507030853 58 306 0.0 0.0 0.00 0.00 0.00 79 1009.8
20260507030352 59 306 0.0 0.0 0.00 0.00 0.00 79 1009.6
20260507025851 59 305 0.0 0.0 0.00 0.00 0.00 79 1009.7
20260507025351 59 311 0.0 0.0 0.00 0.00 0.00 79 1009.5
20260507024850 59 311 0.0 0.0 0.00 0.00 0.00 79 1009.5
20260507024353 59 307 0.0 0.0 0.00 0.00 0.00 78 1009.4
20260507024349 59 311 0.0 0.0 0.00 0.00 0.00 78 1009.4
20260507023954 59 355 0.0 0.0 0.00 0.00 0.00 78 1009.4
20260507022853 59 300 0.0 0.0 0.00 0.00 0.00 79 1009.4
20260507022849 59 301 0.0 0.0 0.00 0.00 0.00 78 1009.4
20260507021847 59 299 0.0 0.0 0.00 0.00 0.00 79 1009.2
20260507021347 59 26 0.0 0.0 0.00 0.00 0.00 78 1009.1
20260507020847 60 324 0.0 0.0 0.00 0.00 0.00 79 1009.3
20260507020345 60 5 0.0 0.0 0.00 0.00 0.00 79 1009.1
20260507015846 60 5 0.0 0.0 0.00 0.00 0.00 79 1008.9
20260507015345 60 15 0.0 0.0 0.00 0.00 0.00 78 1009.0
20260507014845 60 295 0.0 0.0 0.00 0.00 0.00 79 1009.0
20260507014343 60 342 0.0 0.0 0.00 0.00 0.00 80 1009.3
20260507013843 61 183 0.0 0.0 0.00 0.00 0.00 80 1008.9
20260507013343 61 182 0.0 0.0 0.00 0.00 0.00 81 1009.0
20260507012848 61 182 0.0 0.0 0.00 0.00 0.00 81 1008.9
20260507012843 61 182 0.0 0.0 0.00 0.00 0.00 81 1009.0
20260507011848 61 182 0.0 2.0 0.00 0.00 0.00 80 1008.8
20260507011844 61 182 0.0 1.0 0.00 0.00 0.00 80 1008.8
20260507010843 62 257 0.0 2.0 0.00 0.00 0.00 80 1008.8
20260507010352 62 299 0.0 2.0 0.00 0.00 0.00 79 1008.7
20260507010343 62 24 0.0 1.0 0.00 0.00 0.00 79 1008.7
20260507005341 62 314 0.0 8.0 0.00 0.00 0.00 79 1008.7
20260507004841 62 249 0.0 8.0 0.00 0.00 0.00 80 1008.6
20260507004345 63 313 0.0 2.0 0.00 0.00 0.00 80 1008.4
20260507004341 62 298 0.0 4.0 0.00 0.00 0.00 80 1008.4
20260507003341 63 255 0.0 1.0 0.00 0.00 0.00 82 1008.5
20260507002841 63 311 0.0 7.0 0.00 0.00 0.00 82 1008.6
20260507002341 64 292 0.0 7.0 0.00 0.00 0.00 82 1008.5
20260507001841 64 221 0.0 3.0 0.00 0.00 0.00 83 1008.2
20260507001341 64 319 0.0 1.0 0.00 0.00 0.00 84 1008.2
20260507000845 64 320 0.0 1.0 0.00 0.00 0.00 84 1008.3
20260507000339 65 302 0.0 0.0 0.00 0.00 0.00 85 1008.2
20260506235839 65 330 0.0 0.0 0.00 0.00 0.00 85 1008.0
20260506235339 65 294 0.0 9.0 0.00 0.00 0.00 85 1008.0
20260506234839 65 320 0.0 9.0 0.00 0.00 0.00 85 1007.9
20260506234339 65 300 0.0 1.0 0.00 0.00 0.00 85 1007.8
20260506233838 65 288 0.0 0.0 0.00 0.00 0.00 85 1007.5
20260506233339 65 316 0.0 1.0 0.00 0.00 0.00 85 1007.2
20260506232839 65 288 0.0 1.0 0.00 0.00 0.00 85 1007.2
20260506232339 66 275 0.0 1.0 0.00 0.00 0.00 85 1007.3
20260506231839 66 301 0.0 0.0 0.00 0.00 0.00 84 1007.3
20260506231337 66 301 0.0 0.0 0.00 0.00 0.00 84 1007.2
20260506230836 66 303 0.0 1.0 0.00 0.00 0.00 84 1007.3
20260506230337 66 332 0.0 1.0 0.00 0.00 0.00 83 1007.4
20260506225837 66 308 0.0 0.0 0.00 0.00 0.00 83 1007.4
20260506225337 67 275 0.0 0.0 0.00 0.00 0.00 83 1007.2
20260506224841 67 302 0.0 0.0 0.00 0.00 0.00 84 1007.3
20260506224837 67 267 0.0 0.0 0.00 0.00 0.00 84 1007.3
20260506223841 67 257 0.0 0.0 0.00 0.00 0.00 84 1007.3
20260506223837 67 260 0.0 0.0 0.00 0.00 0.00 84 1007.3
20260506222837 67 300 0.0 0.0 0.00 0.00 0.00 84 1007.3
20260506222341 68 233 0.0 0.0 0.00 0.00 0.00 84 1007.2
20260506222337 68 233 0.0 0.0 0.00 0.00 0.00 84 1007.3
20260506221337 68 232 0.0 0.0 0.00 0.00 0.00 84 1007.3
20260506220841 68 232 0.0 0.0 0.00 0.00 0.00 85 1006.9
20260506220837 68 232 0.0 0.0 0.00 0.00 0.00 84 1007.2
20260506215835 68 232 0.0 0.0 0.00 0.00 0.00 85 1006.9
20260506215334 68 232 0.0 0.0 0.00 0.00 0.00 85 1007.0
20260506214835 67 232 0.0 0.0 0.00 0.00 0.00 85 1007.0
20260506214333 67 232 0.0 0.0 0.00 0.00 0.00 86 1007.1
20260506213832 67 242 0.0 0.0 0.00 0.00 0.00 87 1007.0
20260506213331 67 243 0.0 0.0 0.00 0.00 0.00 87 1007.0
20260506212831 67 242 0.0 0.0 0.00 0.00 0.00 87 1007.0
20260506212328 67 242 0.0 0.0 0.00 0.00 0.00 87 1006.9
20260506211829 67 242 0.0 0.0 0.00 0.00 0.00 87 1006.8
20260506211329 67 242 0.0 0.0 0.00 0.00 0.00 87 1006.6
20260506210828 67 200 0.0 0.0 0.00 0.00 0.00 88 1006.6
20260506210327 67 200 0.0 0.0 0.00 0.00 0.00 88 1006.5
20260506205831 66 200 0.0 0.0 0.00 0.00 0.00 88 1006.5
20260506205827 66 200 0.0 0.0 0.00 0.00 0.00 88 1006.4
20260506204831 66 200 0.0 0.0 0.00 0.00 0.00 88 1006.4
20260506204827 66 200 0.0 0.0 0.00 0.00 0.00 88 1006.5
20260506204326 66 200 0.0 0.0 0.00 0.00 0.00 88 1006.4
20260506203326 66 200 0.0 0.0 0.00 0.00 0.00 88 1006.5
20260506202826 66 200 0.0 0.0 0.00 0.00 0.00 87 1006.5
20260506202327 66 200 0.0 0.0 0.00 0.00 0.00 87 1006.4
20260506201826 66 200 0.0 0.0 0.00 0.00 0.00 87 1006.5
20260506201326 66 200 0.0 0.0 0.00 0.00 0.00 87 1006.4
20260506200827 66 200 0.0 0.0 0.00 0.00 0.00 87 1006.5
20260506200326 67 200 0.0 0.0 0.00 0.00 0.00 87 1006.5
20260506195826 67 200 0.0 0.0 0.00 0.00 0.00 87 1006.6
20260506195331 67 200 0.0 0.0 0.00 0.00 0.00 86 1006.5
20260506195327 67 200 0.0 0.0 0.00 0.00 0.00 86 1006.5
20260506194931 67 200 0.0 0.0 0.00 0.00 0.00 86 1006.4
20260506193826 67 200 0.0 0.0 0.00 0.00 0.00 86 1006.5
20260506193325 67 252 0.0 0.0 0.00 0.00 0.00 86 1006.6
20260506192825 67 252 0.0 0.0 0.00 0.00 0.00 85 1006.6
20260506192327 67 252 0.0 0.0 0.00 0.00 0.00 84 1006.8
20260506191822 67 252 0.0 0.0 0.00 0.00 0.00 85 1006.7
20260506191323 67 253 0.0 0.0 0.00 0.00 0.00 84 1006.7
20260506190823 67 262 0.0 0.0 0.00 0.00 0.00 86 1006.6
20260506190818 67 204 0.0 0.0 0.00 0.00 0.00 85 1006.6
20260506190319 67 204 0.0 0.0 0.00 0.00 0.00 86 1006.7
20260506185314 66 209 0.0 0.0 0.00 0.00 0.00 86 1006.7
20260506184820 66 209 0.0 0.0 0.00 0.00 0.00 86 1006.7
20260506184314 66 209 0.0 0.0 0.00 0.00 0.00 86 1006.7
20260506183814 66 171 0.0 0.0 0.00 0.00 0.00 86 1006.8
20260506183315 66 171 0.0 0.0 0.00 0.00 0.00 87 1006.8
20260506182819 66 198 0.0 0.0 0.00 0.00 0.00 87 1006.8
20260506182318 65 242 0.0 0.0 0.00 0.00 0.00 88 1006.8
20260506182314 66 205 0.0 0.0 0.00 0.00 0.00 88 1006.9
20260506181314 65 242 0.0 0.0 0.00 0.00 0.00 87 1006.9
20260506180814 65 240 0.0 0.0 0.00 0.00 0.00 87 1006.9
20260506180312 65 246 0.0 0.0 0.00 0.00 0.00 87 1006.9
20260506175812 65 248 0.0 0.0 0.00 0.00 0.00 86 1006.9
20260506175313 66 117 0.0 0.0 0.00 0.00 0.00 87 1006.9
20260506174813 66 138 0.0 0.0 0.00 0.00 0.00 87 1007.1
20260506174312 66 286 0.0 0.0 0.00 0.00 0.00 87 1007.0
20260506173814 65 261 0.0 0.0 0.00 0.00 0.00 89 1006.9
20260506173810 66 145 0.0 0.0 0.00 0.00 0.00 88 1006.9
20260506173306 66 146 0.0 0.0 0.00 0.00 0.00 88 1006.8
20260506172307 65 257 0.0 0.0 0.00 0.00 0.00 89 1006.8
20260506171806 65 253 0.0 0.0 0.00 0.00 0.00 90 1006.8
20260506171306 65 163 0.0 0.0 0.00 0.00 0.00 91 1006.9
20260506170804 64 236 0.0 0.0 0.00 0.00 0.00 92 1006.8
20260506170304 64 294 0.0 0.0 0.00 0.00 0.00 92 1007.0
20260506165804 64 223 0.0 0.0 0.00 0.00 0.00 93 1007.0
20260506165305 64 120 0.0 0.0 0.00 0.00 0.00 93 1006.9
20260506164804 64 220 0.0 0.0 0.00 0.00 0.00 94 1007.0
20260506164305 63 236 0.0 0.0 0.00 0.00 0.00 94 1007.0
20260506163804 63 255 0.0 0.0 0.00 0.00 0.00 94 1007.0
20260506163304 62 223 0.0 0.0 0.00 0.00 0.00 94 1006.9
20260506162803 62 107 0.0 0.0 0.00 0.00 0.00 94 1007.1
20260506162306 62 202 0.0 0.0 0.00 0.00 0.00 94 1007.1
20260506161802 62 215 0.0 0.0 0.00 0.00 0.00 94 1007.1
20260506161303 61 167 0.0 0.0 0.00 0.00 0.00 94 1007.1
20260506160802 61 167 0.0 0.0 0.00 0.00 0.00 94 1007.0
20260506160302 61 190 0.0 0.0 0.00 0.00 0.00 94 1007.1
20260506155802 61 190 0.0 0.0 0.00 0.00 0.00 94 1007.1
20260506155305 61 192 0.0 0.0 0.00 0.00 0.00 94 1007.3
20260506154802 61 54 0.0 0.0 0.00 0.00 0.00 94 1007.4
20260506154302 61 96 0.0 0.0 0.00 0.00 0.00 94 1007.4
20260506153800 61 254 0.0 0.0 0.00 0.00 0.00 94 1007.3
20260506153300 61 163 0.0 1.0 0.00 0.00 0.00 94 1007.3
20260506152800 61 238 0.0 1.0 0.00 0.00 0.00 93 1007.2
20260506152300 61 182 0.0 0.0 0.00 0.00 0.00 94 1007.3
20260506151800 61 165 0.0 0.0 0.00 0.00 0.00 93 1007.2
20260506151302 61 175 0.0 2.0 0.00 0.00 0.00 93 1007.2
20260506151258 61 160 0.0 0.0 0.00 0.00 0.00 93 1007.1
20260506150304 61 247 0.0 2.0 0.00 0.00 0.00 93 1007.5
20260506145758 61 196 0.0 0.0 0.00 0.00 0.00 94 1007.3
20260506145258 61 213 0.0 1.0 0.00 0.00 0.00 93 1007.2
20260506144757 61 151 0.0 1.0 0.00 0.00 0.00 93 1007.3
20260506144258 61 195 0.0 1.0 0.00 0.00 0.00 93 1007.4
20260506143758 61 170 0.0 1.0 0.00 0.00 0.00 93 1007.7
20260506143258 61 213 0.0 1.0 0.00 0.00 0.00 93 1007.8
20260506142758 60 185 0.0 0.0 0.00 0.00 0.00 93 1007.8
20260506142258 60 240 0.0 0.0 0.00 0.00 0.00 93 1007.8
20260506141757 60 194 0.0 0.0 0.00 0.00 0.00 93 1007.9
20260506141403 60 235 0.0 0.0 0.00 0.00 0.00 93 1007.6
20260506141302 60 175 0.0 0.0 0.00 0.00 0.00 93 1007.8
20260506141258 60 174 0.0 0.0 0.00 0.00 0.00 93 1007.9